Погода в Гилянах

Россия / Чеченская Республика     43°04′29″N   46°28′53″E
темп.,
°C
ветер,
м/с
пор.,
м/с
влажн.,
%
обл.,
%
осадки,
мм/ч
давл.,
гПа
погр.,
м
14 мая, пт
пт1400:00+14ю226912 0.0 101522
03:00+14ю32543 0.0 101523
06:00+16ю33494 0.0 101531
09:00+24св12340 0.0 1013735
12:00+26ссв33310 0.0 10131840
15:00+27св22332 0.0 10121463
18:00+21ююз216061 0.2 101324
21:00+15ю556395 0.3 101578
15 мая, сб
сб1500:00+15ю43500 0.0 101447
03:00+15ю43520 0.0 101440
06:00+17ю33540 0.0 101439
09:00+23с21390 0.0 1014748
12:00+24ссв33410 0.0 10141499
15:00+24с32410 0.0 10121458
18:00+21сз126329 0.1 101341
21:00+17ю3271100 0.1 101425
16 мая, вс
вс1600:00+16ю326897 0.0 101327
03:00+15ю336818 0.0 101234
06:00+17ю33644 0.0 101259
09:00+23св12421 0.0 10101039
12:00+26ссв23350 0.0 10081775
15:00+26всв34333 0.0 10071688
18:00+22юв11572 0.0 100726
21:00+18ю43550 0.0 100846
17 мая, пн
пн1700:00+16ю43420 0.0 100846
03:00+15ю43355 0.0 100847
06:00+16ю434437 0.0 100751
09:00+25ссв11305 0.0 1006643
12:00+27с333056 0.0 10061623
15:00+27с33322 0.0 10051839
18:00+23в11585 0.0 100517
21:00+18юз2257100 0.0 100820
18 мая, вт
вт1800:00+17ююз336576 0.0 100940
03:00+15юз226623 0.0 100931
06:00+16зюз257972 0.0 1010281
09:00+19зсз456894 0.0 1010824
12:00+16з4787100 0.8 1012780
15:00+13з4997100 8.6 1013694
18:00+13зюз3796100 1.8 1014365
21:00+12юз2492100 1.8 101694